Regional Weather Roundup
Issued by NWS

Home | Current Version | Previous Version | Text Only | Print | Product List | Glossary Off
Versions: 1 2 3 4 5 6 7 8 9 10 11 12 13 14 15 16 17 18 19 20 21 22 23 24 25 26 27 28 29 30 31 32 33 34 35 36 37 38 39 40 41 42 43 44 45 46 47 48 49 50

000
ASUS43 KLOT 070221
RWRIL

ILLINOIS REGIONAL WEATHER ROUNDUP
NATIONAL WEATHER SERVICE CHICAGO/ROMEOVILLE IL
900 PM CDT MON JUL 06 2015

NOTE: "FAIR" INDICATES FEW OR NO CLOUDS BELOW 12,000 FEET WITH NO
SIGNIFICANT WEATHER AND/OR OBSTRUCTIONS TO VISIBILITY.

* THESE STATIONS ARE NOT UNDER NWS QUALITY CONTROL. THEY ALSO MAY NOT
  REPORT WEATHER SUCH AS PRECIPITATION OR FOG.

ILZ001-002-007-009-015-016-024-070300-
NORTHWEST ILLINOIS

CITY           SKY/WX    TMP DP  RH WIND       PRES   REMARKS
MOLINE         HVY RAIN  71  69  93 S8        29.86F FOG
STERLING*      CLOUDY    72  70  94 W13       29.87R
SAVANNA*       HVY RAIN  73  70  91 SW6       29.86S
$$

ILZ003-004-008-010-011-017-018-070300-
NORTH CENTRAL ILLINOIS

CITY           SKY/WX    TMP DP  RH WIND       PRES   REMARKS
ROCKFORD       CLOUDY    73  68  84 S8        29.87R
FREEPORT*      RAIN      72  71  96 SW9       29.88R
ROCHELLE*      CLOUDY    71  69  93 W5        29.86S
DE KALB*       CLOUDY    69  68  96 SE7       29.87F
PERU*          RAIN      72  70  93 S3        29.85F
$$

ILZ005-006-012>014-019>023-070300-
NORTHEAST ILLINOIS

CITY           SKY/WX    TMP DP  RH WIND       PRES   REMARKS
CHICAGO-OHARE  TSTM      72  70  93 SW15G24   29.88R FOG
CHICAGO-MIDWAY TSTM      79  69  71 W22G29    29.88R HX  81
AURORA         LGT RAIN  73  69  87 S10       29.87F
LANSING*       CLOUDY    75  67  76 S7        29.88R
JOLIET*        HVY RAIN  76  73  90 W9        29.90R
WAUKEGAN       CLOUDY    77  70  79 S18G28    29.83R
DUPAGE AIRPORT LGT RAIN  72  70  93 S8        29.87F
KANKAKEE*      LGT RAIN  77  74  89 S6        29.89R
WHEELING       RAIN      73  70  90 SW10      29.89R FOG
MORRIS*        TSTM      73  70  89 W10G24    29.89R
ROMEOVILLE*    RAIN      74  69  87 W18       29.89R
NORTHERLY ISL    N/A     79  66  64 SW10        N/A  HX  81
$$

LMZ740>746-070300-
SOUTHERN LAKE MICHIGAN

STATION/POSITION SKY/WX   TEMP    WIND        PRES    VSBY  WAVE
                          AIR SEA DIR/SP/G                  HT/PER
                          (F)     (DEG/KT/KT) (MB)    (MI)  (FT/S)
HARRISON CRIB              77     190/ 16/ 19   N/A
BURNHAM HARBOR             78     180/ 10/ 15   N/A
CALUMET HARBOR             78     180/  9/ 12   N/A
BURNS HARBOR               76     170/  9/ 14 1011.5F
MICHIGAN CITY              74     160/ 12/ 17   N/A
MICHIGAN CITY 6N           72 68  190/  8/ 10   N/A           1/ 2
ST. JOSEPH                 73 67  230/ 14/ 16   N/A           2/ 2
$$

ILZ025>027-034>036-040-047-049-050-058-095>099-070300-
WEST-CENTRAL ILLINOIS

CITY           SKY/WX    TMP DP  RH WIND       PRES   REMARKS
QUINCY         LGT RAIN  80  75  84 S6        29.86F HX  85
GALESBURG*     HVY RAIN  71  69  96 CALM      29.91S
MACOMB*        RAIN      77  76  96 CALM      29.90R
JACKSONVILLE*  CLOUDY    82  74  77 S12       29.88F HX  87
PITTSFIELD*    CLOUDY    80  74  84 S3        29.89S HX  84
$$

ILZ028>032-037-038-041>044-048-051>054-059>061-070300-
CENTRAL ILLINOIS

CITY           SKY/WX    TMP DP  RH WIND       PRES   REMARKS
PONTIAC        CLOUDY    81  74  80 S13G20    29.89S HX  86
BLOOMINGTON    CLOUDY    78  73  84 S13       29.91S HX  80
DECATUR        CLOUDY    77  71  82 S9        29.92R
PEORIA         CLOUDY    83  71  67 SW15G23   29.87S HX  87
LACON*         LGT RAIN  74  70  87 CALM      29.85S
LINCOLN*       CLOUDY    79  73  80 S7        29.89F HX  83
SPRINGFIELD    CLOUDY    82  74  76 S10       29.90R HX  88
TAYLORVILLE    CLOUDY    75  68  78 S6        29.92S
$$

ILZ033-039-045-046-055>057-062-063-070300-
EAST-CENTRAL ILLINOIS

CITY           SKY/WX    TMP DP  RH WIND       PRES   REMARKS
CHAMPAIGN      LGT RAIN  74  68  81 S7        29.93R
DANVILLE*      CLOUDY    76  70  80 S8        29.90S
RANTOUL*       CLOUDY    78  69  72 SW6       29.92S HX  80
MATTOON        CLOUDY    75  70  84 S7        29.93R
PARIS*         CLOUDY    72  69  90 S3        29.95R
$$

ILZ079-100>102-070300-
SOUTHWEST ILLINOIS

CITY           SKY/WX    TMP DP  RH WIND       PRES   REMARKS
ALTON          CLOUDY    79 N/A N/A SE7       29.92R
BELLEVILLE     MOCLDY    80  76  88 S10       29.92R HX  86
CAHOKIA*       MOCLDY    82  74  76 S6        29.91S HX  88
SPARTA*        MOCLDY    80  74  83 S6        29.95S HX  84
$$

ILZ064>066-069>071-074>076-080>082-084>086-088>090-092>094-070300-
SOUTH-CENTRAL ILLINOIS

CITY           SKY/WX    TMP DP  RH WIND       PRES   REMARKS
CARBONDALE     PTCLDY    80  74  81 S8        29.96R HX  85
CAIRO*         PTCLDY    80  74  82 S6        29.97S HX  84
EFFINGHAM*     MOCLDY    78  73  83 S3        29.96R HX  80
MARION         PTCLDY    81  75  83 S15       29.97R HX  86
MT. VERNON     MOCLDY    79  70  73 S7        29.97R HX  81
CENTRALIA*     PTCLDY    78  72  81 S6        29.95S HX  80
SALEM*         PTCLDY    82  73  75 S5        29.95R HX  87
$$

ILZ067-068-072-073-078-083-087-091-070300-
SOUTHEAST ILLINOIS

CITY           SKY/WX    TMP DP  RH WIND       PRES   REMARKS
LAWRENCEVILLE  MOCLDY    78  74  87 S6        29.96R HX  81
FLORA*         MOCLDY    79  73  82 S7        29.96R HX  83
FAIRFIELD*     PTCLDY    80  74  84 S7        29.95R HX  84
HARRISBURG*    PTCLDY    79  75  87 S5        29.98R HX  83
ROBINSON*      MOCLDY    78  73  85 S5        29.96R HX  81
CARMI*         PTCLDY    78  70  77 S6        29.96R HX  80
$$

ABBREVIATIONS USED IN REMARKS
   TC - TEMPERATURE IN CELSIUS
  WCI - WIND CHILL INDEX
   HX - HEAT INDEX
  VSB - VISIBILITY
$$




USA.gov is the U.S. government's official web portal to all federal, state and local government web resources and services.